DW8824 Weather Reports


Display with metric or nautical units.
time (UTC)temp
F
wind
direction
speed
MPH
gust
MPH
rain 1hr
in
rain 24hr
in
rain mn
in
humidity
%
barometer
mb
20260507081904 81 83 5.0 12.0 0.00 0.00 0.00 75 1016.2
20260507081404 81 118 6.0 16.0 0.00 0.00 0.00 76 1016.1
20260507080404 81 74 3.0 12.0 0.00 0.00 0.00 75 1016.2
20260507075904 81 91 5.0 13.0 0.00 0.00 0.00 74 1016.2
20260507075404 81 107 5.0 13.0 0.00 0.00 0.00 74 1016.2
20260507074905 82 139 7.0 14.0 0.00 0.00 0.00 74 1016.3
20260507074404 81 142 5.0 12.0 0.00 0.00 0.00 74 1016.4
20260507073904 81 103 6.0 14.0 0.00 0.00 0.00 75 1016.4
20260507073404 81 128 8.0 15.0 0.00 0.00 0.00 74 1016.5
20260507072904 82 82 5.0 15.0 0.00 0.00 0.00 74 1016.5
20260507072404 82 99 4.0 15.0 0.00 0.00 0.00 74 1016.6
20260507071904 81 120 4.0 14.0 0.00 0.00 0.00 74 1016.6
20260507071404 81 96 5.0 16.0 0.00 0.00 0.00 73 1016.7
20260507070904 82 79 9.0 17.0 0.00 0.00 0.00 73 1016.8
20260507065904 82 86 3.0 17.0 0.00 0.00 0.00 73 1016.9
20260507064404 81 81 7.0 16.0 0.00 0.00 0.00 74 1017.0
20260507063905 82 128 4.0 15.0 0.00 0.00 0.00 73 1017.0
20260507063403 81 135 3.0 14.0 0.00 0.00 0.00 74 1017.1
20260507062904 81 92 8.0 16.0 0.00 0.00 0.00 71 1017.1
20260507062404 81 133 2.0 16.0 0.00 0.00 0.00 71 1017.2
20260507061404 81 130 7.0 16.0 0.00 0.00 0.00 71 1017.0
20260507060904 81 97 6.0 14.0 0.00 0.00 0.00 71 1017.1
20260507060404 81 86 10.0 22.0 0.00 0.00 0.00 71 1017.2
20260507055904 81 79 6.0 15.0 0.00 0.00 0.00 71 1017.2
20260507055404 81 84 4.0 12.0 0.00 0.00 0.00 72 1017.2
20260507054904 81 88 6.0 15.0 0.00 0.00 0.00 72 1017.2
20260507054404 81 104 5.0 16.0 0.00 0.00 0.00 72 1017.2
20260507053904 81 100 6.0 15.0 0.00 0.00 0.00 73 1017.2
20260507053404 81 100 5.0 16.0 0.00 0.00 0.00 73 1017.2
20260507052903 81 116 5.0 14.0 0.00 0.00 0.00 74 1017.2
20260507052404 80 77 6.0 15.0 0.00 0.00 0.00 74 1017.2
20260507051404 79 107 5.0 12.0 0.00 0.00 0.00 75 1017.2
20260507050904 79 130 6.0 13.0 0.00 0.00 0.00 75 1017.2
20260507050404 79 107 6.0 12.0 0.00 0.00 0.00 76 1017.2
20260507045904 79 154 4.0 10.0 0.00 0.00 0.00 77 1017.2
20260507045404 80 111 3.0 12.0 0.00 0.00 0.00 76 1017.2
20260507044403 79 166 4.0 12.0 0.00 0.00 0.00 77 1017.1
20260507043903 79 148 6.0 13.0 0.00 0.00 0.00 77 1017.0
20260507043404 79 128 3.0 13.0 0.00 0.00 0.00 77 1017.0
20260507042404 79 140 5.0 12.0 0.00 0.00 0.00 78 1016.9
20260507041904 78 177 2.0 9.0 0.00 0.00 0.00 79 1016.9
20260507041404 78 107 3.0 10.0 0.00 0.00 0.00 79 1016.8
20260507040904 78 115 4.0 10.0 0.00 0.00 0.00 79 1016.8
20260507040404 78 160 5.0 12.0 0.00 0.00 0.00 79 1016.8
20260507035904 77 129 3.0 12.0 0.00 0.00 0.00 80 1016.8
20260507035404 77 170 4.0 12.0 0.00 0.00 0.00 81 1016.7
20260507034904 76 173 2.0 12.0 0.00 0.00 0.00 81 1016.5
20260507034404 76 142 2.0 9.0 0.00 0.00 0.00 82 1016.5
20260507033904 76 151 3.0 8.0 0.00 0.00 0.00 83 1016.5
20260507033404 75 125 1.0 12.0 0.00 0.00 0.00 83 1016.4
20260507032404 74 170 3.0 12.0 0.00 0.00 0.00 84 1016.4
20260507031904 74 172 1.0 9.0 0.00 0.00 0.00 84 1016.3
20260507030404 74 163 3.0 8.0 0.00 0.00 0.00 85 1016.2
20260507025905 74 170 2.0 7.0 0.00 0.00 0.00 85 1016.2
20260507024904 73 159 1.0 6.0 0.00 0.00 0.00 86 1016.2
20260507023904 73 144 0.0 1.0 0.00 0.00 0.00 86 1016.1
20260507023404 73 127 0.0 5.0 0.00 0.00 0.00 86 1016.1
20260507022405 73 121 1.0 7.0 0.00 0.00 0.00 86 1016.2
20260507021904 73 100 1.0 7.0 0.00 0.00 0.00 86 1016.1
20260507021404 73 110 0.0 1.0 0.00 0.00 0.00 86 1016.1
20260507020904 73 155 0.0 1.0 0.00 0.00 0.00 86 1016.1
20260507020404 73 106 0.0 0.0 0.00 0.00 0.00 86 1016.1
20260507015904 73 137 0.0 5.0 0.00 0.00 0.00 86 1016.1
20260507015404 73 50 1.0 5.0 0.00 0.00 0.00 86 1016.1
20260507014904 73 174 1.0 7.0 0.00 0.00 0.00 86 1016.0
20260507014404 73 170 1.0 5.0 0.00 0.00 0.00 86 1016.0
20260507013904 73 157 1.0 7.0 0.00 0.00 0.00 86 1015.9
20260507013404 73 142 0.0 6.0 0.00 0.00 0.00 86 1015.9
20260507012904 73 162 0.0 2.0 0.00 0.00 0.00 86 1015.9
20260507012404 73 13 1.0 5.0 0.00 0.00 0.00 86 1015.8
20260507011404 73 163 2.0 3.0 0.00 0.00 0.00 86 1015.8
20260507010904 73 110 0.0 7.0 0.00 0.00 0.00 86 1015.8
20260507010404 73 145 1.0 8.0 0.00 0.00 0.00 86 1015.9
20260507005905 73 126 0.0 5.0 0.00 0.00 0.00 86 1015.9
20260507005403 73 156 1.0 6.0 0.00 0.00 0.00 86 1015.9
20260507004904 73 118 1.0 6.0 0.00 0.00 0.00 86 1015.8
20260507004404 73 109 1.0 6.0 0.00 0.00 0.00 87 1015.8
20260507003905 73 150 1.0 7.0 0.00 0.00 0.00 87 1015.8
20260507003404 73 186 1.0 5.0 0.00 0.00 0.00 87 1015.8
20260507002404 73 137 0.0 3.0 0.00 0.00 0.00 87 1015.7
20260507001905 73 169 2.0 6.0 0.00 0.00 0.00 87 1015.8
20260507001404 73 187 1.0 6.0 0.00 0.00 0.00 87 1015.8
20260507000904 73 2 2.0 6.0 0.00 0.00 0.00 87 1015.8
20260507000405 73 160 0.0 6.0 0.00 0.00 0.00 87 1015.8
20260506235905 73 148 0.0 6.0 0.00 0.00 0.00 87 1015.8
20260506234904 73 149 0.0 7.0 0.00 0.00 0.00 88 1015.9
20260506234405 73 171 0.0 3.0 0.00 0.00 0.00 88 1015.8
20260506233905 73 197 1.0 8.0 0.00 0.00 0.00 88 1015.9
20260506233403 73 201 0.0 3.0 0.00 0.00 0.00 88 1015.8
20260506232904 73 180 0.0 3.0 0.00 0.00 0.00 88 1015.9
20260506232404 73 182 0.0 2.0 0.00 0.00 0.00 88 1015.9
20260506231904 73 162 0.0 0.0 0.00 0.00 0.00 89 1016.0
20260506231404 73 166 0.0 0.0 0.00 0.00 0.00 88 1016.0
20260506230404 73 171 0.0 0.0 0.00 0.00 0.00 88 1016.1
20260506225904 73 171 0.0 0.0 0.00 0.00 0.00 88 1016.2
20260506224904 73 171 0.0 3.0 0.00 0.00 0.00 89 1016.1
20260506224404 73 147 2.0 5.0 0.00 0.00 0.00 89 1016.1
20260506223904 73 177 1.0 5.0 0.00 0.00 0.00 88 1016.2
20260506223404 73 175 1.0 5.0 0.00 0.00 0.00 88 1016.1
20260506222904 73 158 0.0 1.0 0.00 0.00 0.00 88 1016.3
20260506222404 73 167 0.0 0.0 0.00 0.00 0.00 88 1016.3
20260506221904 73 171 0.0 2.0 0.00 0.00 0.00 88 1016.3
20260506221404 73 113 0.0 0.0 0.00 0.00 0.00 88 1016.4
20260506220904 74 124 0.0 0.0 0.00 0.00 0.00 88 1016.5
20260506220404 74 123 0.0 0.0 0.00 0.00 0.00 88 1016.5
20260506215404 74 111 0.0 0.0 0.00 0.00 0.00 88 1016.6
20260506214404 74 120 0.0 3.0 0.00 0.00 0.00 88 1016.6
20260506213904 74 126 1.0 3.0 0.00 0.00 0.00 88 1016.7
20260506213405 74 147 0.0 0.0 0.00 0.00 0.00 88 1016.8
20260506212904 74 151 1.0 6.0 0.00 0.00 0.00 88 1016.8
20260506212404 74 124 1.0 8.0 0.00 0.00 0.00 88 1016.8
20260506211904 74 127 0.0 3.0 0.00 0.00 0.00 88 1016.8
20260506211405 74 8 0.0 2.0 0.00 0.00 0.00 88 1016.8
20260506210904 74 117 0.0 0.0 0.00 0.00 0.00 88 1016.8
20260506210403 74 132 1.0 3.0 0.00 0.00 0.00 88 1016.8
20260506205904 74 159 0.0 0.0 0.00 0.00 0.00 88 1016.8
20260506204904 74 155 0.0 1.0 0.00 0.00 0.00 88 1016.8
20260506204404 74 165 1.0 5.0 0.00 0.00 0.00 88 1016.8
20260506203904 74 179 1.0 5.0 0.00 0.00 0.00 88 1016.8
20260506202904 74 174 0.0 0.0 0.00 0.00 0.00 87 1016.8
20260506202404 74 179 0.0 2.0 0.00 0.00 0.00 87 1016.7
20260506201904 74 168 0.0 0.0 0.00 0.00 0.00 88 1016.8
20260506200904 74 140 0.0 0.0 0.00 0.00 0.00 87 1016.8
20260506200404 74 90 0.0 0.0 0.00 0.00 0.00 87 1016.8
20260506195904 74 34 0.0 0.0 0.00 0.00 0.00 87 1016.9
20260506195404 74 8 0.0 0.0 0.00 0.00 0.00 87 1016.9
20260506194904 74 50 0.0 2.0 0.00 0.00 0.00 87 1017.0
20260506194404 75 109 0.0 3.0 0.00 0.00 0.00 87 1016.9
20260506193904 74 136 0.0 3.0 0.00 0.00 0.00 87 1016.9
20260506193404 74 153 0.0 0.0 0.00 0.00 0.00 87 1016.9
20260506192404 74 175 0.0 2.0 0.00 0.00 0.00 88 1017.0
20260506191904 74 172 0.0 5.0 0.00 0.00 0.00 88 1016.9
20260506191403 74 157 0.0 0.0 0.00 0.00 0.00 88 1017.0
20260506190904 74 158 0.0 1.0 0.00 0.00 0.00 88 1016.9
20260506190404 74 167 1.0 6.0 0.00 0.00 0.00 88 1016.9
20260506185404 74 163 0.0 9.0 0.00 0.00 0.00 88 1016.9
20260506184404 74 175 0.0 0.0 0.00 0.00 0.00 88 1016.8
20260506183905 74 175 0.0 3.0 0.00 0.00 0.00 88 1016.9
20260506183404 74 144 0.0 1.0 0.00 0.00 0.00 88 1016.9
20260506182904 74 156 0.0 0.0 0.00 0.00 0.00 88 1016.8
20260506181904 74 156 0.0 2.0 0.00 0.00 0.00 88 1016.7
20260506181404 74 170 0.0 1.0 0.00 0.00 0.00 88 1016.8
20260506180404 74 157 0.0 0.0 0.00 0.00 0.00 87 1016.6
20260506175904 74 157 0.0 0.0 0.00 0.00 0.00 87 1016.6
20260506175404 74 157 0.0 0.0 0.00 0.00 0.00 87 1016.6
20260506174904 75 161 0.0 5.0 0.00 0.00 0.00 87 1016.5
20260506174404 75 125 0.0 3.0 0.00 0.00 0.00 87 1016.6
20260506173904 75 129 1.0 5.0 0.00 0.00 0.00 87 1016.6
20260506173404 75 119 1.0 3.0 0.00 0.00 0.00 87 1016.6
20260506172904 75 119 0.0 5.0 0.00 0.00 0.00 87 1016.5
20260506171904 75 100 0.0 0.0 0.00 0.00 0.00 87 1016.5
20260506171404 75 158 0.0 3.0 0.00 0.00 0.00 87 1016.5
20260506170904 75 163 0.0 0.0 0.00 0.00 0.00 87 1016.5
20260506170404 75 165 0.0 0.0 0.00 0.00 0.00 87 1016.5
20260506165904 75 145 0.0 0.0 0.00 0.00 0.00 87 1016.5
20260506165404 75 145 0.0 0.0 0.00 0.00 0.00 87 1016.4
20260506164904 75 175 0.0 0.0 0.00 0.00 0.00 87 1016.4
20260506164404 75 182 0.0 0.0 0.00 0.00 0.00 87 1016.3
20260506163404 75 128 0.0 0.0 0.00 0.00 0.00 86 1016.2
20260506162404 75 161 0.0 1.0 0.00 0.00 0.00 86 1016.2
20260506161904 75 144 0.0 0.0 0.00 0.00 0.00 86 1016.2
20260506160904 76 161 0.0 5.0 0.00 0.00 0.00 85 1016.1
20260506160404 76 124 0.0 0.0 0.00 0.00 0.00 85 1016.1
20260506155904 76 186 0.0 1.0 0.00 0.00 0.00 85 1016.1
20260506154903 76 121 0.0 6.0 0.00 0.00 0.00 85 1016.1
20260506154404 76 150 1.0 6.0 0.00 0.00 0.00 85 1016.0
20260506153904 77 131 0.0 0.0 0.00 0.00 0.00 84 1015.9
20260506152904 77 91 0.0 3.0 0.00 0.00 0.00 84 1015.8
20260506152404 77 123 0.0 3.0 0.00 0.00 0.00 84 1015.7
20260506151904 77 97 0.0 5.0 0.00 0.00 0.00 83 1015.5
20260506151404 77 120 0.0 1.0 0.00 0.00 0.00 83 1015.4
20260506150904 77 159 0.0 3.0 0.00 0.00 0.00 83 1015.4
20260506150404 77 129 0.0 0.0 0.00 0.00 0.00 82 1015.4
20260506145904 78 109 0.0 0.0 0.00 0.00 0.00 82 1015.4
20260506145404 78 103 0.0 3.0 0.00 0.00 0.00 82 1015.3
20260506144905 78 101 1.0 3.0 0.00 0.00 0.00 82 1015.3
20260506144404 78 68 1.0 3.0 0.00 0.00 0.00 82 1015.3
20260506143904 78 124 1.0 7.0 0.00 0.00 0.00 82 1015.2
20260506143404 78 106 1.0 5.0 0.00 0.00 0.00 82 1015.2
20260506142904 78 99 0.0 1.0 0.00 0.00 0.00 81 1015.2
20260506142404 78 127 0.0 3.0 0.00 0.00 0.00 81 1015.1
20260506141905 78 91 0.0 0.0 0.00 0.00 0.00 81 1015.1
20260506141404 78 103 1.0 7.0 0.00 0.00 0.00 80 1015.0
20260506140904 78 126 0.0 6.0 0.00 0.00 0.00 80 1014.9
20260506140404 78 91 1.0 3.0 0.00 0.00 0.00 80 1014.8
20260506135904 78 101 0.0 3.0 0.00 0.00 0.00 79 1014.8
20260506135404 78 76 1.0 6.0 0.00 0.00 0.00 79 1014.8
20260506134904 79 94 1.0 8.0 0.00 0.00 0.00 79 1014.7
20260506134404 79 63 1.0 7.0 0.00 0.00 0.00 79 1014.7
20260506133904 79 107 5.0 12.0 0.00 0.00 0.00 78 1014.6
20260506133404 79 117 1.0 12.0 0.00 0.00 0.00 79 1014.5
20260506132904 79 102 2.0 9.0 0.00 0.00 0.00 78 1014.5
20260506131905 80 50 1.0 10.0 0.00 0.00 0.00 77 1014.5
20260506131404 80 94 2.0 9.0 0.00 0.00 0.00 77 1014.5
20260506130904 80 123 1.0 8.0 0.00 0.00 0.00 76 1014.4
20260506130405 80 86 2.0 9.0 0.00 0.00 0.00 77 1014.4
20260506125903 80 106 3.0 10.0 0.00 0.00 0.00 77 1014.4
20260506125404 80 98 1.0 9.0 0.00 0.00 0.00 77 1014.3
20260506124904 80 105 3.0 10.0 0.00 0.00 0.00 76 1014.3
20260506123904 80 124 2.0 13.0 0.00 0.00 0.00 76 1014.2
20260506122904 81 90 5.0 12.0 0.00 0.00 0.00 75 1014.2
20260506122404 81 85 4.0 12.0 0.00 0.00 0.00 76 1014.2
20260506121904 81 125 3.0 15.0 0.00 0.00 0.00 76 1014.2
20260506121404 81 87 5.0 12.0 0.00 0.00 0.00 75 1014.1
20260506120904 81 93 5.0 12.0 0.00 0.00 0.00 75 1014.1
20260506120404 81 110 2.0 15.0 0.00 0.00 0.00 74 1014.1
20260506115904 81 71 6.0 12.0 0.00 0.00 0.00 75 1014.1
20260506115404 81 109 7.0 14.0 0.00 0.00 0.00 73 1014.1
20260506114904 81 88 4.0 12.0 0.00 0.00 0.00 74 1014.1
20260506114404 82 135 5.0 10.0 0.00 0.00 0.00 75 1014.0
20260506113904 82 62 2.0 12.0 0.00 0.00 0.00 75 1014.0
20260506112904 81 96 5.0 10.0 0.00 0.00 0.00 74 1014.0
20260506112404 81 79 4.0 12.0 0.00 0.00 0.00 75 1013.9
20260506111904 81 93 5.0 12.0 0.00 0.00 0.00 76 1014.0
20260506111404 82 101 2.0 14.0 0.00 0.00 0.00 75 1013.9
20260506110403 81 124 6.0 13.0 0.00 0.00 0.00 77 1013.9
20260506105905 81 114 3.0 12.0 0.00 0.00 0.00 78 1013.9
20260506105404 80 94 3.0 13.0 0.00 0.00 0.00 78 1013.9
20260506104904 81 126 5.0 12.0 0.00 0.00 0.00 77 1013.9
20260506104404 82 85 7.0 13.0 0.00 0.00 0.00 76 1013.9
20260506103904 82 121 2.0 12.0 0.00 0.00 0.00 76 1013.9
20260506103404 82 71 3.0 12.0 0.00 0.00 0.00 74 1013.8
20260506102904 82 77 5.0 13.0 0.00 0.00 0.00 75 1013.8
20260506101905 82 115 6.0 14.0 0.00 0.00 0.00 75 1013.8
20260506101403 83 113 5.0 12.0 0.00 0.00 0.00 73 1013.9
20260506100904 83 122 2.0 15.0 0.00 0.00 0.00 73 1013.9
20260506100404 83 87 4.0 12.0 0.00 0.00 0.00 73 1014.0
20260506095905 82 117 8.0 13.0 0.00 0.00 0.00 72 1014.1
20260506095404 82 73 9.0 13.0 0.00 0.00 0.00 71 1014.3
20260506094904 82 105 5.0 12.0 0.00 0.00 0.00 69 1014.3
20260506094403 82 99 5.0 14.0 0.00 0.00 0.00 71 1014.4
20260506093904 82 75 4.0 9.0 0.00 0.00 0.00 74 1014.4
20260506093403 81 66 4.0 12.0 0.00 0.00 0.00 73 1014.4
20260506092904 81 90 4.0 10.0 0.00 0.00 0.00 75 1014.6
20260506092404 81 83 7.0 14.0 0.00 0.00 0.00 74 1014.6
20260506091904 82 73 5.0 9.0 0.00 0.00 0.00 74 1014.5
20260506090904 82 157 3.0 12.0 0.00 0.00 0.00 74 1014.7
20260506090404 82 105 5.0 12.0 0.00 0.00 0.00 74 1014.7
20260506085404 82 66 4.0 12.0 0.00 0.00 0.00 73 1014.8
20260506084904 82 57 5.0 14.0 0.00 0.00 0.00 71 1014.9
20260506083904 82 98 6.0 15.0 0.00 0.00 0.00 72 1014.9
20260506082404 82 80 4.0 13.0 0.00 0.00 0.00 74 1015.1